Location: Godiavel Galaoual
(15.2485°N, 12.6604°W)
Time: 21:38:53
(UTC+00:00)

Transit 2A - All Passes

Search period start: 13 June 2021 00:00
Search period end: 23 June 2021 00:00
Orbit: 601 x 958 km, 66.7° (Epoch: 13 June)

Date Brightness Start Highest point End Pass type
(mag) Time Alt. Az. Time Alt. Az. Time Alt. Az.
13 Jun - 04:47:36 10° NNW 04:53:00 81° ENE 04:58:57 10° SSE visible
13 Jun - 17:32:10 10° SSW 17:36:50 74° ESE 17:41:12 10° NNE daylight
14 Jun - 04:13:38 10° N 04:18:51 50° ENE 04:24:33 10° SE visible
14 Jun - 05:59:13 10° W 06:01:49 13° WSW 06:04:29 10° SW visible
14 Jun - 16:58:20 10° S 17:02:42 39° ESE 17:06:48 10° NE daylight
15 Jun - 03:39:57 10° N 03:44:42 31° ENE 03:49:49 10° SE visible
15 Jun - 05:23:28 10° WNW 05:27:39 22° WSW 05:32:08 10° SSW visible
15 Jun - 16:24:57 10° SSE 16:28:34 22° ESE 16:32:00 10° ENE daylight
15 Jun - 18:08:29 10° WSW 18:11:28 17° WNW 18:14:20 10° NNW daylight
16 Jun - 03:06:40 10° NNE 03:10:30 19° ENE 03:14:34 10° ESE visible
16 Jun - 04:48:32 10° NW 04:53:31 35° WSW 04:58:54 10° S visible
16 Jun - 15:52:28 10° SE 15:54:26 13° ESE 15:56:21 10° E daylight
16 Jun - 17:33:17 10° SW 17:37:16 29° WNW 17:41:06 10° N daylight
17 Jun - 02:34:23 10° NE 02:36:16 12° ENE 02:38:11 10° E visible
17 Jun - 04:14:00 10° NNW 04:19:22 57° WSW 04:25:14 10° S visible
17 Jun - 16:58:37 10° SW 17:03:07 53° WNW 17:07:22 10° N daylight
18 Jun - 03:39:44 10° NNW 03:45:12 88° ENE 03:51:14 10° SSE visible
18 Jun - 16:24:21 10° SSW 16:28:58 83° ESE 16:33:20 10° NNE daylight
19 Jun - 03:05:44 10° N 03:11:04 55° ENE 03:16:54 10° SE visible
19 Jun - 04:51:53 10° W 04:54:01 12° WSW 04:56:12 10° SW night (unlit)
19 Jun - 15:50:27 10° S 15:54:51 44° ESE 15:59:00 10° NE daylight
20 Jun - 02:31:59 10° N 02:36:54 34° ENE 02:42:13 10° SE visible
20 Jun - 04:15:50 10° WNW 04:19:52 20° WSW 04:24:09 10° SSW night (unlit)
20 Jun - 15:16:57 10° SSE 15:20:43 25° ESE 15:24:17 10° NE daylight
20 Jun - 17:01:00 10° WSW 17:03:37 15° WNW 17:06:11 10° NNW daylight
21 Jun - 01:58:35 10° NNE 02:02:44 22° ENE 02:07:07 10° ESE visible
21 Jun - 03:40:48 10° NW 03:45:44 32° WSW 03:51:02 10° S night (unlit)
21 Jun - 14:44:13 10° SE 14:46:35 14° ESE 14:48:52 10° ENE daylight
21 Jun - 16:25:37 10° SW 16:29:25 26° WNW 16:33:06 10° N daylight
22 Jun - 01:25:55 10° NE 01:28:29 13° ENE 01:31:09 10° E visible
22 Jun - 03:06:12 10° NW 03:11:34 52° WSW 03:17:26 10° S visible
22 Jun - 15:50:53 10° SW 15:55:16 47° WNW 15:59:27 10° N daylight
